[[{"header":{"parameterUnit":"m.s-1","parameterCategory":1,"la1":30.2991,"la2":30.254,"lo1":-89.0895,"lo2":-89.0444,"dy":0.0017,"dx":0.0017,"nx":28,"ny":28,"refTime":"2024-03-29T03:00:00:Z","depth":0,"parameterNumber":2,"parameterNumberName":"U-component_of_WINDS"},"data":[0,0,0,0,0,0,0,0,0,0,0,0,0,0,0,0,0,0,0,0,0,0,0,0,0,0,0,0,0,0,0,0,0,0,0,0,0,0,0,0,0,0,0,0,0,0,0,0,0,0,0,0,0,0,0,0,0,0,-1.8208,-1.8208,0,-1.8225,-1.8225,-1.8225,-1.8207,-1.8207,-1.8206,-1.8205,-1.8223,-1.8224,-1.8225,0,0,0,0,0,0,0,0,0,0,0,0,0,-1.816,-1.8161,-1.8208,-1.8208,-1.8208,-1.8225,-1.8225,-1.8225,-1.8208,-1.8207,-1.8206,-1.8205,-1.8223,-1.8224,-1.8225,0,0,0,0,0,0,0,0,0,0,0,0,0,-1.818,-1.8162,-1.8208,-1.8201,-1.8201,-1.8225,-1.8225,-1.8225,-1.8208,-1.8207,-1.8206,-1.8205,-1.8222,-1.8224,-1.8225,-1.8256,0,0,-1.8231,-1.8231,0,0,0,0,0,0,0,0,-1.8179,-1.8181,-1.8202,-1.8202,-1.8202,-1.8213,-1.8215,-1.8236,-1.8208,-1.8205,-1.8205,-1.8204,-1.8221,-1.8222,-1.8228,-1.8257,-1.8258,-1.8231,-1.8232,-1.8232,-1.8233,0,0,0,0,0,0,0,-1.8177,-1.8181,-1.8215,-1.8203,-1.8202,-1.8198,-1.8199,-1.8219,-1.8218,-1.8205,-1.8204,-1.8206,-1.822,-1.8226,-1.8228,-1.8258,-1.8231,-1.8232,-1.8233,-1.8234,-1.8313,-1.8315,0,0,0,0,0,0,-1.8177,-1.818,-1.8214,-1.8215,-1.8187,-1.82,-1.8201,-1.821,-1.8218,-1.8218,-1.8207,-1.8205,-1.8224,-1.8226,-1.8229,-1.8265,-1.8232,-1.8234,-1.8235,-1.8312,-1.8314,-1.8315,0,0,0,0,0,0,-1.8176,-1.818,-1.8213,-1.8197,-1.8201,-1.8201,-1.8212,-1.8211,-1.8217,-1.822,-1.8219,-1.8213,-1.8223,-1.8226,-1.8249,-1.8265,-1.8235,-1.8236,-1.8311,-1.8313,-1.8314,-1.8337,0,0,0,0,0,0,-1.8174,-1.818,-1.8191,-1.8197,-1.8202,-1.8234,-1.8213,-1.8212,-1.822,-1.8218,-1.8225,-1.8226,-1.8223,-1.8247,-1.8251,-1.8267,-1.8238,-1.831,-1.8312,-1.8314,-1.8335,-1.834,-1.8344,0,0,0,0,0,-1.8173,-1.8197,-1.8192,-1.8196,-1.8217,-1.8235,-1.8238,-1.8233,-1.8221,-1.8233,-1.8235,-1.8225,-1.8263,-1.825,-1.8254,-1.827,-1.8309,-1.8311,-1.8314,-1.8333,-1.8339,-1.8343,0,0,0,0,0,0,-1.8193,-1.8198,-1.8192,-1.822,-1.8227,-1.8232,-1.8247,-1.8239,-1.8251,-1.8248,-1.8243,-1.8244,-1.8269,-1.8272,-1.8257,-1.83,-1.8284,-1.8287,-1.8297,-1.8302,-1.8307,-1.8305,-1.8239,0,0,0,0,0,-1.8201,-1.8216,-1.8219,-1.8243,-1.8247,-1.8246,-1.8254,-1.825,-1.8258,-1.8261,-1.8264,-1.8272,-1.8285,-1.8294,-1.8307,-1.8336,-1.8337,-1.8349,-1.8354,-1.8357,-1.836,-1.8375,-1.838,-1.8323,-1.8323,-1.8323,0,0,-1.8217,-1.8222,-1.8231,-1.8247,-1.8252,-1.8267,-1.8249,-1.8266,-1.8277,-1.8263,-1.8285,-1.8288,-1.8296,-1.8322,-1.8334,-1.8326,-1.8376,-1.836,-1.8363,-1.8364,-1.8378,-1.8383,-1.8388,-1.8325,-1.8325,-1.8324,0,0,-1.8254,-1.8259,-1.8279,-1.8285,-1.8293,-1.8292,-1.8297,-1.8303,-1.8304,-1.8326,-1.8316,-1.833,-1.8353,-1.8359,-1.8365,-1.8404,-1.8396,-1.8409,-1.843,-1.8445,-1.8449,-1.8453,-1.8466,-1.8471,-1.8412,-1.8412,-1.8412,0,-1.8273,-1.8295,-1.829,-1.8308,-1.8315,-1.8303,-1.8323,-1.8329,-1.8341,-1.8346,-1.8337,-1.8366,-1.8371,-1.8398,-1.8407,-1.8413,-1.8418,-1.8407,-1.8449,-1.8453,-1.8456,-1.8469,-1.8474,-1.8413,-1.8413,-1.8413,-1.8413,0,-1.8318,-1.8333,-1.8348,-1.836,-1.8369,-1.8387,-1.8386,-1.8395,-1.8391,-1.8391,-1.8413,-1.8419,-1.8432,-1.8438,-1.8434,-1.8465,-1.8459,-1.845,-1.8432,-1.8463,-1.8475,-1.8479,-1.8415,-1.8415,-1.8414,-1.8414,0,0,-1.8368,-1.8376,-1.8382,-1.8386,-1.8394,-1.8406,-1.8425,-1.8437,-1.8445,-1.8454,-1.8469,-1.8489,-1.848,-1.8487,-1.8483,-1.8496,-1.8526,-1.8485,-1.8485,-1.8492,-1.8559,-1.8566,-1.8571,-1.8521,-1.8522,-1.8523,-1.8558,0,-1.8404,-1.8435,-1.8431,-1.8461,-1.8475,-1.8464,-1.848,-1.8486,-1.8487,-1.8499,-1.85,-1.8514,-1.8502,-1.8506,-1.8518,-1.852,-1.8539,-1.8517,-1.8534,-1.8535,-1.8531,-1.8577,-1.8585,-1.8618,-1.8563,-1.8563,-1.8564,0,-1.845,-1.846,-1.8491,-1.8496,-1.8502,-1.8516,-1.8527,-1.8539,-1.8546,-1.8546,-1.8554,-1.8548,-1.8566,-1.8549,-1.8574,-1.8559,-1.8566,-1.8568,-1.8569,-1.8569,-1.855,-1.8578,-1.8628,-1.8633,-1.8571,-1.8571,-1.857,0,-1.8483,-1.8504,-1.8525,-1.8529,-1.8536,-1.8546,-1.855,-1.8556,-1.8564,-1.8574,-1.8579,-1.8591,-1.8597,-1.8606,-1.8604,-1.8592,-1.8629,-1.8612,-1.8629,-1.8629,-1.8636,-1.8635,-1.8687,-1.8642,-1.8642,-1.8642,-1.8642,0,-1.8523,-1.8542,-1.8539,-1.8552,-1.8573,-1.8569,-1.859,-1.8592,-1.8597,-1.861,-1.8603,-1.8615,-1.8611,-1.8624,-1.8622,-1.8642,-1.8645,-1.8645,-1.8644,-1.8645,-1.8645,-1.8649,-1.8646,-1.8643,-1.8643,-1.8643,-1.8642,0,-1.8562,-1.8561,-1.8583,-1.8588,-1.859,-1.8605,-1.8609,-1.8621,-1.8621,-1.8638,-1.8641,-1.8642,-1.8656,-1.8654,-1.867,-1.8669,-1.8694,-1.8691,-1.8691,-1.869,-1.8707,-1.8705,-1.8761,-1.8768,-1.872,-1.872,-1.8721,0,-1.8588,-1.8602,-1.8608,-1.8616,-1.862,-1.8633,-1.8641,-1.8637,-1.8646,-1.8655,-1.8666,-1.8679,-1.8689,-1.8712,-1.8714,-1.8726,-1.8722,-1.8741,-1.8724,-1.8724,-1.8721,-1.872,-1.8721,-1.8744,-1.8745,-1.8745,-1.8746,0,-1.8633,-1.8631,-1.8643,-1.8654,-1.8663,-1.8671,-1.8679,-1.8686,-1.8683,-1.8693,-1.8707,-1.8715,-1.8731,-1.8744,-1.8755,-1.8759,-1.8752,-1.8751,-1.8756,-1.8756,-1.8756,-1.8755,-1.87,-1.875,-1.8749,-1.8749,-1.8749,-1.8749,-1.8665,-1.8677,-1.8683,-1.8696,-1.8701,-1.8709,-1.872,-1.8721,-1.8733,-1.8745,-1.8743,-1.8758,-1.8765,-1.8779,-1.8784,-1.8796,-1.8789,-1.8796,-1.8797,-1.8798,-1.88,-1.8755,-1.8798,-1.8798,-1.8798,-1.8798,-1.8798,0,-1.8709,-1.8713,-1.8724,-1.8735,-1.8745,-1.8737,-1.8745,-1.8754,-1.8768,-1.8775,-1.8785,-1.88,-1.8813,-1.8816,-1.8828,-1.8837,-1.8834,-1.884,-1.8839,-1.884,-1.8806,-1.88,-1.8842,-1.8842,-1.8842,-1.8842,-1.8842,-1.8842,-1.8733,-1.8753,-1.8752,-1.8774,-1.8777,-1.8792,-1.8797,-1.8804,-1.8809,-1.8827,-1.8837,-1.8839,-1.8844,-1.8856,-1.8867,-1.8867,-1.8872,-1.8879,-1.8878,-1.8847,-1.8842,-1.8838,-1.8833,-1.888,-1.888,-1.8911,-1.8911,-1.8911]},{"header":{"parameterUnit":"m.s-1","parameterCategory":1,"la1":30.2991,"la2":30.254,"lo1":-89.0895,"lo2":-89.0444,"dy":0.0017,"dx":0.0017,"nx":28,"ny":28,"refTime":"2024-03-29T03:00:00:Z","depth":0,"parameterNumber":3,"parameterNumberName":"V-component_of_WINDS"},"data":[0,0,0,0,0,0,0,0,0,0,0,0,0,0,0,0,0,0,0,0,0,0,0,0,0,0,0,0,0,0,0,0,0,0,0,0,0,0,0,0,0,0,0,0,0,0,0,0,0,0,0,0,0,0,0,0,0,0,3.2415,3.2416,0,3.2494,3.2495,3.2496,3.2468,3.2466,3.2464,3.2463,3.254,3.2544,3.2547,0,0,0,0,0,0,0,0,0,0,0,0,0,3.2235,3.2238,3.2415,3.2416,3.2417,3.2494,3.2495,3.2496,3.2468,3.2466,3.2464,3.2462,3.2539,3.2543,3.2548,0,0,0,0,0,0,0,0,0,0,0,0,0,3.2313,3.2239,3.2415,3.2412,3.2413,3.2494,3.2495,3.2497,3.2469,3.2466,3.2463,3.2461,3.2537,3.2543,3.2548,3.2636,0,0,3.2565,3.2568,0,0,0,0,0,0,0,0,3.2309,3.232,3.2412,3.2412,3.2413,3.2469,3.246,3.2543,3.2469,3.2447,3.2463,3.246,3.2518,3.2525,3.2546,3.2639,3.2643,3.2566,3.2569,3.2572,3.2573,0,0,0,0,0,0,0,3.2304,3.2316,3.2446,3.2413,3.2414,3.2406,3.2414,3.2476,3.2496,3.2449,3.2447,3.2457,3.2518,3.2541,3.2547,3.2644,3.2566,3.2571,3.2574,3.2576,3.2812,3.2815,0,0,0,0,0,0,3.2298,3.2312,3.2444,3.2449,3.2354,3.2411,3.2421,3.2453,3.2496,3.25,3.2459,3.2456,3.2532,3.2541,3.255,3.2655,3.2572,3.2577,3.258,3.281,3.2813,3.2816,0,0,0,0,0,0,3.2294,3.231,3.244,3.238,3.2396,3.2417,3.2454,3.2456,3.2479,3.2504,3.2507,3.2479,3.2531,3.2542,3.2615,3.2657,3.2579,3.2584,3.2806,3.2811,3.2815,3.2865,0,0,0,0,0,0,3.2289,3.2309,3.2343,3.2381,3.2399,3.2505,3.2457,3.246,3.2489,3.2485,3.2523,3.2526,3.2529,3.2607,3.262,3.2663,3.2589,3.2802,3.2808,3.2813,3.286,3.2871,3.288,0,0,0,0,0,3.2283,3.2353,3.2345,3.2361,3.2443,3.2508,3.2518,3.2521,3.2492,3.2526,3.2542,3.2525,3.2651,3.2614,3.2629,3.2675,3.28,3.2806,3.2813,3.2855,3.2869,3.288,0,0,0,0,0,0,3.2318,3.2358,3.2349,3.2434,3.2468,3.2503,3.2546,3.2535,3.2577,3.2571,3.2572,3.2581,3.2655,3.2672,3.2631,3.2761,3.2721,3.2731,3.2748,3.276,3.277,3.2764,3.2593,0,0,0,0,0,3.2336,3.2387,3.2419,3.249,3.2508,3.2524,3.2552,3.2552,3.2587,3.26,3.2621,3.2654,3.2701,3.2732,3.2776,3.2862,3.287,3.2901,3.2911,3.2919,3.2928,3.2974,3.2988,3.2838,3.2838,3.2838,0,0,3.2373,3.2401,3.2433,3.2498,3.2524,3.2576,3.2536,3.2592,3.263,3.2608,3.2678,3.2695,3.2732,3.2812,3.2848,3.2828,3.2971,3.2928,3.2934,3.2938,3.2982,3.2997,3.3009,3.2843,3.2842,3.2841,0,0,3.2467,3.2494,3.2557,3.2584,3.2624,3.2635,3.265,3.2687,3.2698,3.2768,3.2753,3.2798,3.2878,3.2905,3.2929,3.3034,3.302,3.3049,3.3101,3.3147,3.3159,3.3169,3.3206,3.3219,3.3057,3.3057,3.3057,0,3.2507,3.2586,3.259,3.2647,3.2676,3.2661,3.2724,3.275,3.2802,3.2822,3.2799,3.2901,3.2924,3.301,3.3036,3.3056,3.3072,3.3044,3.3157,3.3167,3.3177,3.3212,3.3226,3.306,3.306,3.306,3.3059,0,3.2633,3.2687,3.2733,3.2786,3.282,3.288,3.2892,3.2926,3.2923,3.2935,3.3007,3.3035,3.3085,3.3106,3.3103,3.3191,3.3178,3.3156,3.3115,3.3195,3.3228,3.3241,3.3065,3.3064,3.3063,3.3062,0,0,3.275,3.2805,3.2822,3.2846,3.289,3.2931,3.299,3.3041,3.3069,3.3106,3.3155,3.3224,3.3205,3.3232,3.3232,3.3272,3.3353,3.3246,3.3247,3.3264,3.3452,3.3467,3.3483,3.3344,3.3347,3.3349,3.3449,0,3.2847,3.2952,3.2958,3.3053,3.3103,3.3089,3.3141,3.3172,3.3186,3.3229,3.3243,3.3293,3.3263,3.328,3.3319,3.3335,3.3391,3.3328,3.3389,3.3391,3.3379,3.35,3.3517,3.361,3.3462,3.3464,3.3466,0,3.2974,3.3016,3.3117,3.3154,3.3175,3.3221,3.3268,3.331,3.3346,3.3353,3.3384,3.3379,3.3438,3.3396,3.3477,3.3435,3.346,3.3471,3.3475,3.348,3.3432,3.3508,3.364,3.3653,3.3486,3.3484,3.3483,0,3.3049,3.3131,3.3202,3.3222,3.3268,3.3301,3.3321,3.3354,3.3384,3.3424,3.3444,3.349,3.3515,3.3551,3.3558,3.3526,3.3639,3.3597,3.3646,3.3646,3.3669,3.3668,3.3806,3.3687,3.3687,3.3686,3.3686,0,3.3156,3.3218,3.3236,3.3279,3.3348,3.3354,3.3421,3.3439,3.3469,3.3514,3.3505,3.3548,3.3555,3.3599,3.3605,3.3671,3.3683,3.3689,3.369,3.369,3.3689,3.3706,3.3699,3.369,3.3689,3.3688,3.3688,0,3.3251,3.3266,3.3342,3.3379,3.339,3.3439,3.347,3.3511,3.3524,3.3582,3.3596,3.3616,3.3667,3.3678,3.3739,3.3743,3.3822,3.3816,3.381,3.3809,3.3857,3.3852,3.401,3.4031,3.3899,3.39,3.3901,0,3.3318,3.3365,3.3408,3.3439,3.3461,3.3511,3.3542,3.3549,3.3581,3.3626,3.3662,3.3713,3.3754,3.3837,3.3856,3.3903,3.3898,3.395,3.3904,3.3903,3.3898,3.3895,3.3899,3.3958,3.396,3.3961,3.3962,0,3.3435,3.3441,3.3486,3.3535,3.3573,3.3611,3.3647,3.3673,3.3685,3.3721,3.3775,3.3807,3.387,3.3921,3.3968,3.3987,3.3976,3.3976,3.399,3.399,3.3984,3.3988,3.3833,3.3972,3.3971,3.3971,3.397,3.397,3.3518,3.356,3.3597,3.3648,3.3676,3.3711,3.3752,3.377,3.3815,3.3868,3.3869,3.3928,3.3962,3.4024,3.4047,3.4092,3.4075,3.4095,3.41,3.4104,3.4109,3.3978,3.41,3.41,3.41,3.4099,3.4099,0,3.3635,3.3658,3.3705,3.3757,3.3798,3.3786,3.3826,3.386,3.3912,3.3945,3.3987,3.4048,3.4097,3.4121,3.4169,3.4201,3.4197,3.4213,3.421,3.4215,3.4121,3.4104,3.4215,3.4215,3.4215,3.4215,3.4215,3.4215,3.37,3.377,3.378,3.3863,3.3886,3.3944,3.3968,3.3999,3.4026,3.4096,3.4137,3.4153,3.4182,3.4233,3.4277,3.4283,3.4301,3.4319,3.4322,3.4233,3.4222,3.421,3.4195,3.4323,3.4323,3.4413,3.4413,3.4414]}]]